www.pogodaiklimat.ru

Погода и климат >> Архив погоды >> Великобритания >> Леконфилд


ПОГОДА в Леконфилде

  • Прогноз погоды в Леконфилде
  • Монитор погоды в Леконфилде

АРХИВ ПОГОДЫ в Леконфилде

Время (UTC), дата Ветер
(напр.,м/с)
 
Видим.   Явления Облачность Т
(С)
Тd
(С)
f
(%)
Тe
(С)
Тes
(С)
Комфортность P
(гПа)
Po
(гПа)
Тmin
(С)
Tmax
(С)
R
(мм)
R24
(мм)
S
(см)
01 12.08 ЮЗ 4 17 км н/о +10.9 +8.5 85 +8 +8 1010.0 1009.2
02 12.08 ЮЗ 5 21 км н/о +10.7 +8.3 85 +8 +8 1010.0 1009.2
03 12.08 ЮЗ 5 21 км н/о +10.1 +7.9 86 +7 +7 1010.2 1009.4
04 12.08 ЮЗ 5 25 км н/о +10.1 +7.8 86 +7 +7 1010.2 1009.4
05 12.08 З 4 22 км н/о +10.3 +7.9 85 +8 +8 1010.8 1009.9
06 12.08 ЮЗ 4 30 км н/о +11.1 +8.4 83 +9 +9 1010.8 1010.0 +9.9
07 12.08 ЮЗ 4 20 км н/о +12.0 +9.0 82 +10 +10 1011.5 1010.6
08 12.08 З 5 30 км н/о +13.5 +8.8 73 +12 +12 1011.7 1010.9
09 12.08 З 5 50 км н/о +13.9 +9.3 74 +12 +12 1012.2 1011.4
10 12.08 З 4 35 км н/о +13.8 +9.8 77 +12 +12 1012.6 1011.8
11 12.08 З 4 50 км н/о +14.6 +10.4 76 +14 +14 1012.6 1011.8
12 12.08 С 3 16 км слаб. ливневой дождь н/о +13.2 +11.0 87 +12 +12 1013.0 1012.2 0.0
13 12.08 С 3 2900 м сильн. дождь н/о +12.1 +11.3 95 +11 +11 1013.5 1012.6
14 12.08 С 1 6000 м сильн. дождь н/о +12.7 +11.5 92 +13 +13 1013.6 1012.7
15 12.08 В 2 22 км в посл. час дождь н/о +13.7 +12.1 90 +13 +13 1013.7 1012.9
16 12.08 В 3 45 км н/о +13.6 +11.8 89 +13 +13 1013.7 1012.8
17 12.08 ЮВ 2 50 км в посл. час дождь н/о +13.4 +11.2 87 +13 +13 1013.4 1012.6
18 12.08 В 2 50 км в посл. час туман н/о +13.7 +10.9 83 +13 +13 1013.8 1013.0 +15.1 9
19 12.08 ЮВ 2 45 км н/о +13.7 +11.4 86 +13 +13 1014.0 1013.2
20 12.08 ЮВ 1 18 км н/о +11.8 +10.7 93 +12 +12 1014.5 1013.6
21 12.08 ЮЗ 2 19 км н/о +10.1 +9.6 97 +9 +9 1014.9 1014.0
22 12.08 З 2 35 км н/о +9.5 +8.5 93 +8 +8 1014.8 1013.9
23 12.08 З 2 45 км н/о +9.7 +8.2 90 +8 +8 1014.8 1013.9
00 13.08 ЮЗ 3 40 км н/о +9.6 +7.9 89 +7 +7 1014.9 1014.0
01 13.08 З 2 30 км н/о +8.6 +7.3 92 +7 +7 1014.7 1013.8
02 13.08 ЮЗ 2 30 км н/о +9.0 +7.7 92 +8 +8 1014.6 1013.7
03 13.08 СВ 1 10 км дым н/о +8.9 +7.8 93 +9 +9 1014.4 1013.5
04 13.08 З 3 13 км слаб. ливневой дождь н/о +11.1 +9.7 91 +9 +9 1014.2 1013.4
05 13.08 З 2 14 км дождь н/о +10.2 +9.5 95 +9 +9 1014.3 1013.5
06 13.08 ЮЗ 1 20 км в посл. час дождь н/о +10.1 +9.6 97 +9 +9 1014.4 1013.6 +8.5 4
07 13.08 З 3 30 км н/о +11.9 +10.8 93 +10 +10 1014.7 1013.9
08 13.08 З 4 35 км н/о +13.1 +10.6 85 +11 +11 1015.0 1014.2
09 13.08 З 3 н/о н/о +14.3 +10.6 78 +13 +13 1015.0 1014.2
10 13.08 З 4 40 км н/о +15.6 +9.6 67 +15 +15 1015.1 1014.3
11 13.08 З 4 45 км н/о +17.0 +9.4 61 +17 +17 1015.1 1014.2
12 13.08 СЗ 2 45 км слаб. ливневой дождь н/о +16.0 +10.5 70 +16 +16 1015.2 1014.3 0.2
13 13.08 З 2 50 км в посл. час дождь н/о +17.2 +11.4 69 +18 +18 1014.9 1014.1
14 13.08 З 4 50 км н/о +17.8 +8.3 54 +18 +18 1014.6 1013.8
15 13.08 СЗ 3 30 км н/о +18.8 +9.6 55 +20 +20 1014.4 1013.6
16 13.08 З 5 30 км н/о +18.9 +7.7 48 +19 +19 1014.5 1013.7
17 13.08 З 6 50 км н/о +17.9 +7.1 49 +17 +17 1014.7 1013.8
18 13.08 З 6 40 км н/о +17.5 +6.2 47 +17 +17 1014.9 1014.1 +19.2 0.6
19 13.08 З 4 50 км н/о +16.1 +6.5 53 +16 +16 1015.2 1014.4
20 13.08 З 2 45 км н/о +13.5 +6.7 63 +13 +13 1015.4 1014.6
21 13.08 З 2 50 км н/о +11.4 +6.4 71 +10 +10 1015.4 1014.6
22 13.08 З 2 40 км н/о +9.2 +6.1 81 +7 +7 1015.4 1014.6
23 13.08 ЮЗ 3 50 км н/о +9.4 +6.8 84 +7 +7 1015.5 1014.7
00 14.08 ЮЗ 2 45 км н/о +9.0 +6.8 86 +7 +7 1015.4 1014.6
01 14.08 З 2 30 км н/о +9.0 +6.9 87 +8 +8 1015.1 1014.2
02 14.08 Ю 1 27 км н/о +8.2 +7.2 93 +7 +7 1014.8 1014.0
03 14.08 штиль 0 26 км н/о +8.4 +7.8 96 +7 +7 1014.4 1013.5
04 14.08 ЮВ 1 35 км н/о +9.2 +8.7 97 +9 +9 1013.9 1013.0
05 14.08 В 1 13 км в посл. час дождь н/о +9.8 +9.3 97 +9 +9 1013.5 1012.7
06 14.08 штиль 0 26 км н/о +10.5 +10.1 97 +10 +10 1013.4 1012.5 +8.0 0.2
07 14.08 ЮВ 1 15 км слаб. ливневой дождь н/о +11.4 +10.7 95 +12 +12 1012.9 1012.1
08 14.08 ЮВ 2 30 км в посл. час дождь н/о +12.9 +11.2 89 +12 +12 1012.4 1011.5
09 14.08 ЮВ 2 35 км н/о +13.8 +10.8 82 +13 +13 1011.7 1010.8
10 14.08 ЮВ 2 35 км н/о +15.2 +12.0 81 +15 +15 1011.0 1010.2
11 14.08 Ю 3 45 км н/о +16.8 +12.6 76 +17 +17 1010.4 1009.5
12 14.08 Ю 3 35 км в посл. час дождь н/о +16.7 +13.1 79 +16 +16 1009.5 1008.7 0.2
13 14.08 Ю 5 11 км слаб. дождь н/о +15.9 +13.3 85 +15 +15 1008.9 1008.1
14 14.08 Ю 4 30 км слаб. ливневой дождь н/о +15.6 +13.7 88 +15 +15 1008.2 1007.4
15 14.08 Ю 4 45 км в посл. час дождь н/о +15.9 +13.7 87 +15 +15 1007.4 1006.5
16 14.08 Ю 4 50 км н/о +16.0 +13.7 86 +15 +15 1006.2 1005.3
17 14.08 Ю 4 3600 м слаб. морось с дождем н/о +15.3 +14.1 93 +14 +14 1005.7 1004.8
18 14.08 Ю 2 5000 м в посл. час дождь н/о +15.1 +14.3 95 +15 +15 1004.6 1003.8 +17.3 0.4
19 14.08 ЮВ 1 3300 м дымка н/о +15.1 +14.4 96 +16 +16 1004.3 1003.5
20 14.08 ЮВ 2 6000 м дымка н/о +14.9 +14.6 98 +15 +15 1004.1 1003.2
21 14.08 ЮВ 1 2600 м слаб. ливневой дождь н/о +15.0 +14.7 98 +16 +16 1003.7 1002.9
22 14.08 Ю 1 3500 м в посл. час дождь н/о +14.7 +14.4 98 +15 +15 1003.4 1002.6
23 14.08 Ю 1 5000 м дымка н/о +15.0 +14.8 99 +15 +15 1003.1 1002.3
00 15.08 Ю 1 5000 м слаб. морось с дождем н/о +15.6 +15.5 99 +16 +16 1002.9 1002.1 0.2
01 15.08 ЮЗ 3 16 км в посл. час дождь н/о +15.9 +15.6 98 +15 +15 1002.5 1001.7
02 15.08 З 6 30 км н/о +15.4 +13.5 88 +14 +14 1002.4 1001.6
03 15.08 З 5 27 км н/о +14.8 +13.3 91 +13 +13 1002.6 1001.8
04 15.08 З 4 22 км н/о +14.5 +13.2 92 +13 +13 1002.8 1002.0
05 15.08 ЮЗ 4 20 км н/о +14.7 +13.3 91 +14 +14 1003.2 1002.4
06 15.08 ЮЗ 4 35 км н/о +15.3 +13.8 91 +14 +14 1003.6 1002.7 +14.3 0.2
07 15.08 ЮЗ 5 24 км в посл. час дождь н/о +15.6 +14.2 91 +14 +14 1003.9 1003.0
08 15.08 З 6 45 км н/о +16.4 +13.7 84 +15 +15 1004.4 1003.6
09 15.08 З 8 29 км н/о +16.9 +13.0 78 +16 +16 1005.0 1004.2
10 15.08 З 7
{13}
30 км н/о +17.9 +12.8 72 +17 +17 1005.5 1004.7
11 15.08 З 7-13
{13}
45 км н/о +17.8 +11.9 68 +17 +17 1006.5 1005.7
12 15.08 З 7
{13}
35 км н/о +18.0 +11.3 65 +17 +17 1007.6 1006.8 0.0
13 15.08 З 7-12
{13}
45 км н/о +18.9 +10.1 57 +19 +19 1008.5 1007.6
14 15.08 З 7 50 км н/о +19.0 +10.1 56 +19 +19 1009.2 1008.4
15 15.08 З 7
{13}
30 км н/о +19.4 +10.1 55 +20 +20 1010.0 1009.2
16 15.08 З 7 35 км н/о +19.7 +9.9 53 +20 +20 1010.8 1010.0
17 15.08 З 7 45 км н/о +18.6 +9.3 55 +18 +18 1011.6 1010.8
18 15.08 З 7 35 км н/о +17.7 +8.6 55 +17 +17 1012.4 1011.6 +20.2 0.0
19 15.08 З 6 40 км н/о +16.1 +7.8 58 +15 +15 1013.4 1012.6
20 15.08 З 4 45 км н/о +14.1 +8.2 68 +13 +13 1013.9 1013.0
21 15.08 З 4 45 км н/о +13.1 +8.2 72 +12 +12 1014.2 1013.3
22 15.08 З 3 40 км н/о +12.8 +8.3 74 +12 +12 1014.5 1013.7
23 15.08 Ю 2 29 км н/о +11.4 +8.5 82 +10 +10 1014.4 1013.5
00 16.08 Ю 1 17 км н/о +11.2 +9.0 86 +11 +11 1014.2 1013.4
01 16.08 Ю 2 40 км н/о +11.8 +8.9 82 +11 +11 1013.7 1012.8
02 16.08 ЮВ 2 29 км н/о +11.1 +8.8 86 +10 +10 1013.2 1012.4
03 16.08 ЮЗ 3 35 км н/о +12.4 +10.7 89 +11 +11 1012.8 1011.9
04 16.08 ЮЗ 2 26 км н/о +12.6 +10.0 84 +12 +12 1012.2 1011.3
05 16.08 Ю 4 23 км н/о +13.1 +10.7 85 +11 +11 1011.7 1010.9
06 16.08 Ю 3 27 км н/о +13.4 +11.2 87 +12 +12 1010.7 1009.9 +10.5
07 16.08 Ю 3 24 км н/о +14.0 +11.8 87 +13 +13 1010.4 1009.5
08 16.08 Ю 4 30 км н/о +15.1 +12.6 85 +14 +14 1009.5 1008.6
09 16.08 Ю 4 30 км н/о +15.6 +13.0 85 +15 +15 1008.5 1007.7
10 16.08 Ю 5 18 км слаб. дождь н/о +15.7 +13.8 88 +14 +14 1007.7 1006.9
11 16.08 Ю 6 12 км дождь н/о +15.4 +13.9 91 +14 +14 1007.1 1006.2
12 16.08 Ю 6 10 км дождь н/о +15.6 +14.4 93 +14 +14 1006.0 1005.2 1
13 16.08 Ю 6 8000 м дождь н/о +15.8 +14.4 91 +14 +14 1005.2 1004.3
14 16.08 Ю 6 н/о н/о +15.7 +14.8 94 +14 +14 1004.3 1003.4
15 16.08 Ю 6 9000 м дождь н/о +15.6 +14.7 94 +14 +14 1003.5 1002.6
16 16.08 Ю 7
{13}
8000 м дождь н/о +15.5 +14.9 96 +14 +14 1002.3 1001.5
17 16.08 Ю 6 7000 м дождь н/о +15.9 +15.2 96 +15 +15 1001.4 1000.6
18 16.08 Ю 7 7000 м дождь н/о +15.8 +15.2 96 +14 +14 1000.5 999.7 +16.1 9
19 16.08 Ю 7 27 км дождь н/о +15.9 +15.2 96 +14 +14 999.4 998.6
20 16.08 Ю 5 50 км в посл. час дождь н/о +16.0 +15.1 94 +15 +15 998.9 998.1
21 16.08 Ю 6 19 км слаб. морось с дождем н/о +16.2 +15.4 95 +15 +15 998.6 997.8
22 16.08 ЮЗ 6 50 км в посл. час дождь н/о +16.6 +15.7 94 +16 +16 998.2 997.4
23 16.08 Ю 5 50 км н/о +16.4 +15.5 94 +15 +15 997.6 996.8
00 17.08 ЮЗ 5 8000 м н/о +16.6 +15.7 94 +16 +16 997.5 996.7 0.6
01 17.08 ЮЗ 6 40 км в посл. час дождь н/о +16.2 +13.4 83 +15 +15 997.5 996.6
02 17.08 ЮЗ 4 30 км н/о +14.7 +12.4 86 +13 +13 997.9 997.0
03 17.08 ЮЗ 4 26 км н/о +13.7 +12.1 90 +12 +12 998.2 997.3
04 17.08 ЮЗ 4 16 км н/о +13.1 +11.8 92 +11 +11 998.4 997.6
05 17.08 Ю 4 18 км н/о +13.0 +11.7 92 +11 +11 998.3 997.5
06 17.08 Ю 5 16 км н/о +13.5 +12.0 91 +12 +12 998.7 997.8 +12.9 1
07 17.08 ЮЗ 6 23 км н/о +14.7 +12.8 88 +13 +13 999.0 998.2
08 17.08 ЮЗ 6 17 км н/о +15.9 +13.4 85 +14 +14 999.3 998.5
09 17.08 ЮЗ 7 18 км н/о +16.8 +13.6 81 +16 +16 999.5 998.7
10 17.08 ЮЗ 6 40 км н/о +18.2 +13.9 76 +18 +18 999.7 998.9
11 17.08 З 7 20 км н/о +19.5 +12.8 65 +20 +20 1000.0 999.1
12 17.08 ЮЗ 6
{13}
35 км н/о +20.0 +11.3 57 +21 +21 комфорт 1000.2 999.4
13 17.08 З 9
{13}
30 км н/о +20.2 +10.1 52 +21 +21 комфорт 1000.5 999.7
14 17.08 ЮЗ 6 35 км н/о +20.8 +10.2 51 +22 +22 комфорт 1000.6 999.8
15 17.08 З 6 35 км н/о +20.1 +9.3 50 +21 +21 комфорт 1000.7 999.9
16 17.08 ЮЗ 7 30 км н/о +20.9 +9.0 46 +22 +22 комфорт 1000.8 1000.0
17 17.08 ЮЗ 7 30 км н/о +19.8 +8.1 47 +20 +20 1001.1 1000.3
18 17.08 ЮЗ 7 35 км н/о +19.5 +8.0 47 +20 +20 1000.9 1000.0 +21.0
19 17.08 ЮЗ 3 27 км н/о +18.3 +8.9 54 +19 +19 1000.9 1000.1
20 17.08 ЮЗ 4 40 км н/о +16.1 +8.5 61 +15 +15 1001.2 1000.4
21 17.08 ЮЗ 4 50 км н/о +15.7 +9.3 66 +15 +15 1001.3 1000.5
22 17.08 ЮЗ 5 35 км н/о +15.2 +9.6 69 +14 +14 1001.7 1000.8
23 17.08 ЮЗ 3 35 км н/о +14.3 +10.0 75 +13 +13 1001.4 1000.6
00 18.08 ЮЗ 3 29 км н/о +13.9 +10.7 81 +13 +13 1000.9 1000.0
01 18.08 ЮЗ 5 22 км н/о +13.8 +10.2 79 +12 +12 1001.0 1000.2
02 18.08 ЮЗ 4 20 км н/о +13.3 +10.0 80 +12 +12 1000.2 999.3
03 18.08 ЮЗ 4 19 км н/о +12.8 +10.1 84 +11 +11 999.9 999.1
04 18.08 ЮЗ 5 18 км н/о +13.1 +10.2 83 +11 +11 999.6 998.8
05 18.08 ЮЗ 4 18 км н/о +13.2 +10.6 84 +11 +11 999.7 998.8
06 18.08 ЮЗ 5 18 км н/о +13.6 +10.8 83 +12 +12 999.4 998.6 +12.7
07 18.08 ЮЗ 6 20 км н/о +14.4 +11.1 81 +12 +12 999.3 998.5
08 18.08 ЮЗ 7 35 км н/о +15.6 +11.3 76 +14 +14 999.3 998.5
09 18.08 ЮЗ 7 30 км н/о +17.0 +11.3 69 +16 +16 999.4 998.5
10 18.08 ЮЗ 7 35 км н/о +16.9 +10.4 66 +16 +16 999.6 998.8
11 18.08 ЮЗ 7 45 км н/о +18.0 +9.7 58 +17 +17 999.6 998.8
12 18.08 ЮЗ 8
{13}
35 км н/о +18.3 +9.2 55 +18 +18 999.6 998.7
13 18.08 ЮЗ 7 50 км н/о +18.8 +8.4 51 +19 +19 999.7 998.9
14 18.08 ЮЗ 7 30 км н/о +19.4 +8.5 49 +20 +20 1000.0 999.2
15 18.08 ЮЗ 8
{13}
45 км н/о +19.3 +9.3 52 +19 +19 1000.4 999.6
16 18.08 ЮЗ 7-13
{14}
45 км н/о +19.3 +8.4 49 +19 +19 1000.7 999.9
17 18.08 З 8
{13}
30 км н/о +19.8 +8.0 46 +20 +20 1001.0 1000.2
18 18.08 ЮЗ 7 40 км н/о +18.7 +7.7 49 +19 +19 1001.5 1000.7 +20.5
19 18.08 З 5 30 км н/о +17.9 +8.9 56 +17 +17 1002.0 1001.2
20 18.08 З 2 27 км н/о +15.9 +9.8 67 +16 +16 1002.6 1001.7
21 18.08 ЮЗ 6 18 км н/о +16.1 +9.3 64 +15 +15 1003.1 1002.3
22 18.08 ЮЗ 6 27 км н/о +15.6 +10.0 69 +14 +14 1003.6 1002.8
23 18.08 ЮЗ 6 24 км н/о +14.8 +10.4 75 +13 +13 1004.1 1003.3
00 19.08 ЮЗ 6 26 км н/о +13.8 +10.8 82 +12 +12 1004.3 1003.5

 

Местоположение метеостанции Леконфилд (Великобритания): широта 53.87 долгота -0.43 высота над уровнем моря 7 м.

В архиве по умолчанию представлена погода в Леконфилде за последнюю неделю. Архивные данные за месяц целиком и за предыдущие месяцы, начиная с января 2011 года, Вы можете получить, выбрав интересующий диапазон дат из раскрывающегося списка и нажав кнопку "Ввод!".


*Определитесь, кто Вы:
робот инопланетянин человек

Внимание! Время в таблицах - всемирное. Для получения местного времени необходимо прибавить поправку, которая равна 0 ч.

Смотрите также архив погоды в соседних городах и на ближайших метеорологических станциях:

Погода в Бридлингтоне (Великобритания) (31 км)
Погода в Донна Нук (Великобритания) (55 км)
Погода в Линтон-он-Узе (Великобритания) (57 км)
Погода в Файлингдейлсе (Великобритания) (58 км)
Погода в Скемптоне (Великобритания) (64 км)
Погода в Дишфорт Эйрфилд (Великобритания) (71 км)
Погода в Топклиффе (Великобритания) (72 км)
Погода в Уоддингтоне (Великобритания) (78 км)
Погода в Лофтусе (Великобритания) (83 км)
Погода в Лееминге (Великобритания) (86 км)

Пояснения к столбцам:

Ветер - указаны скорость ветра в м/с - средняя за 10 мин, порывы в срок и между сроками (в фигурных скобках) и направление, откуда дует ветер: С - северный, СВ - северо-восточный, В - восточный, ЮВ - юго-восточный, Ю - южный, ЮЗ - юго-западный, З - западный, СЗ - северо-западный.
Видимость - горизонтальная дальность видимости в метрах или километрах. При видимости от 1 до 10 км при отсутствии осадков обычно наблюдается дымка, при ухудшении видимости до 1 км и менее - туман. В сухую погоду видимость может ухудшаться дымом, пылью или мглою.
Явления - указаны атмосферные явления, наблюдавшиеся в срок или в последний час перед сроком; фигурными скобками обозначены явления, наблюдавшиеся между сроками (за 1-3 часа до срока); квадратными скобками обозначены град или гололедные отложения с указанием их диаметра в мм.
Облачность - указаны через наклонную черту общая и нижняя облачность в баллах и высота нижней границы облаков в метрах; квадратными скобками обозначены формы облаков: Ci - перистые, Cs - перисто-слоистые, Cc - перисто-кучевые, Ac - высококучевые, As - высокослоистые, Sc - слоисто-кучевые, Ns - слоисто-дождевые, Cu - кучевые, Cb - кучево-дождевые. Подробнее классификацию облаков см. в Атласе облаков (PDF).
T - Температура воздуха - температура, измеренная на высоте 2 м над землей.
Td - Температура точки росы - температура, при понижении до которой содержащийся в воздухе водяной пар достигнет насыщения.
f - Относительная влажность воздуха - влажноcть воздуха, измеренная на высоте 2 м над землей.
Te - Эффективная температура - температура, которую ощущает одетый по сезону человек в тени. Характеристика душности погоды. При расчете учитывается влияние влажности воздуха и скорости ветра на теплоощущения человека.
Tes - Эффективная температура на солнце - температура, которую ощущает человек, с поправкой на солнечный нагрев. Характеристика знойности погоды. Зависит от высоты солнца над горизонтом, облачности и скорости ветра. Ночью, в пасмурную погоду, а также при ветре 12 м/с и более поправка равна нулю.
P - Атмосферное давление - приведенное к уровню моря атмосферное давление.
Po - Атмосферное давление - измеренное на уровне метеостанции атмосферное давление.
Tmin - Минимальная температура - минимум температуры воздуха на высоте 2 м над землей.
Tmax - Максимальная температура - максимум температуры воздуха на высоте 2 м над землей.
R - Количество осадков - Количество выпавших осадков за период времени, мм. При наведении курсора мыши на число - период времени, за который выпало указанное количество осадков.
R24 - Количество осадков - Количество выпавших осадков за 24 часа, мм.
S - Снежный покров - Высота снежного покрова, см. При наведении курсора мыши на число - состояние снежного покрова и степень покрытия местности в баллах.